Home   Weather   Camrose   Past weeks
Flag for Canada

Past Weather in Camrose, Alberta, Canada — Yesterday and Last 2 Weeks

Now
46 °F

Partly cloudy.


Feels Like: 45 °F
Forecast: 65 / 52 °F
Wind: 3 mph from South

Location: Edmonton International

Current Time: Jul 16, 2019 at 5:38:25 am

Latest Report: Jul 16, 2019 at 5:00 am


Visibility: 20 mi

Pressure: 29.93 "Hg (27.35 "Hg at 744m altitude)

Humidity: 100%

Dew Point: 46 °F

Location of CamroseLocation

Past Weather in Camrose — Graph

°F

Camrose Temperature Yesterday

Maximum temperature yesterday: 73 °F (at 4:00 pm)
Minimum temperature yesterday: 50 °F (at 5:00 am)
Average temperature yesterday: 61 °F

High & Low Weather Summary for the Past Weeks

 TemperatureHumidityPressure
High77 °F (Jul 13, 3:00 pm)100% (Jul 3, 5:00 am)30.33 "Hg (Jul 3, 5:00 am)
Low39 °F (Jul 4, 5:00 am)47% (Jul 13, 5:00 pm)29.84 "Hg (Jul 7, 2:00 pm)
Average57 °F84%29.99 "Hg
* Reported Jul 1 4:00 am — Jul 16 4:00 am, Camrose. Weather by CustomWeather, © 2019

Note: Actual official high and low records may vary slightly from our data, if they occured in-between our weather recording intervals... More about our weather records

Advertising

Camrose Weather History for the Previous 24 Hours

Scroll right to see more
 ConditionsComfort  
Time TempWeatherWind HumidityBarometerVisibility
4:00 am
Tue, Jul 16
48 °FPartly cloudy.6 mph100%29.94 "Hg20 mi
3:00 am46 °FPartly cloudy.2 mph100%29.96 "Hg20 mi
2:00 am48 °FPartly cloudy.6 mph100%29.97 "Hg20 mi
1:00 am50 °FPassing clouds.3 mph100%29.95 "Hg20 mi
12:00 am52 °FPassing clouds.2 mph94%29.96 "Hg20 mi
11:00 pm
Mon, Jul 15
54 °FPartly cloudy.3 mph94%29.95 "Hg20 mi
10:00 pm55 °FPartly cloudy.5 mph88%29.95 "Hg20 mi
9:21 pm61 °FBroken clouds.10 mph77%29.95 "Hg20 mi
8:30 pm55 °FThunderstorms. Partly sunny.16 mph88%29.98 "Hg12 mi
8:21 pm55 °FPartly sunny.15 mph88%29.99 "Hg8 mi
8:00 pm61 °FThunderstorms. Partly sunny.24 mph63%30.00 "Hg20 mi
7:38 pm64 °FPartly sunny.12 mph68%29.96 "Hg20 mi
7:00 pm70 °FBroken clouds.12 mph60%29.94 "Hg20 mi
6:00 pm73 °FBroken clouds.5 mph53%29.93 "Hg20 mi
5:00 pm72 °FBroken clouds.2 mph53%29.95 "Hg20 mi
4:00 pm73 °FBroken clouds.7 mph57%29.95 "Hg20 mi
3:00 pm72 °FBroken clouds.8 mph61%29.96 "Hg20 mi
2:00 pm70 °FPartly sunny.6 mph64%29.98 "Hg20 mi
1:00 pm68 °FScattered clouds.6 mph69%29.99 "Hg20 mi
12:00 pm68 °FBroken clouds.8 mph69%29.99 "Hg20 mi
11:00 am66 °FBroken clouds.8 mph73%29.99 "Hg20 mi
10:00 am63 °FBroken clouds.8 mph83%30.01 "Hg20 mi
9:00 am61 °FPartly sunny.7 mph83%30.01 "Hg20 mi
8:00 am57 °FPartly sunny.8 mph88%30.00 "Hg20 mi
7:00 am54 °FPartly sunny.6 mph94%29.99 "Hg20 mi
6:00 am50 °FScattered clouds.5 mph100%29.98 "Hg20 mi
5:00 am50 °FPassing clouds.5 mph100%29.96 "Hg20 mi
Weather by CustomWeather, © 2019

See weather overview

LIVE PARTIAL LUNAR ECLIPSE – Watch the eclipse as it happens